DWI1803 SKCG-MDSD

Flight info

Callsign DWI1803
Flight time N/A
Altitude 37000
Route BAQ3A BAQ UW5 ERIKO UM597 GABRA GABRA2H
Aircraft B38M/M-SDE1FGHILORVWXY/HB1

Departure

Time 2026-04-25 02:38
Airport Rafael Nuñez International Airport (SKCG)

Arrival

Time N/A
Airport Las Américas International Airport (MDSD)
Time Latitude Longitude Altitude Speed Heading
2026-04-25 02:07 10.44726 -75.51544 19 ft 0 kts 272°
2026-04-25 02:22 10.44725 -75.51536 19 ft 4 kts 278°
2026-04-25 02:23 10.44716 -75.51512 21 ft 4 kts 317°
2026-04-25 02:23 10.44693 -75.51500 22 ft 4 kts 347°
2026-04-25 02:23 10.44676 -75.51497 22 ft 4 kts 342°
2026-04-25 02:23 10.44656 -75.51481 19 ft 4 kts 306°
2026-04-25 02:24 10.44640 -75.51464 21 ft 4 kts 349°
2026-04-25 02:24 10.44605 -75.51462 22 ft 4 kts 351°
2026-04-25 02:24 10.44584 -75.51460 22 ft 0 kts
2026-04-25 02:30 10.44584 -75.51459 22 ft 0 kts
2026-04-25 02:30 10.44587 -75.51457 22 ft 0 kts 30°
2026-04-25 02:31 10.44590 -75.51453 21 ft 1 kts 59°
2026-04-25 02:31 10.44592 -75.51443 22 ft 1 kts 95°
2026-04-25 02:31 10.44590 -75.51441 22 ft 0 kts 120°
2026-04-25 02:31 10.44582 -75.51428 20 ft 5 kts 123°
2026-04-25 02:32 10.44557 -75.51385 19 ft 9 kts 109°
2026-04-25 02:32 10.44541 -75.51309 21 ft 12 kts 122°
2026-04-25 02:32 10.44452 -75.51283 19 ft 16 kts 181°
2026-04-25 02:32 10.44326 -75.51287 18 ft 21 kts 181°
2026-04-25 02:33 10.44163 -75.51294 15 ft 26 kts 182°
2026-04-25 02:33 10.43970 -75.51301 16 ft 29 kts 181°
2026-04-25 02:33 10.43756 -75.51310 17 ft 32 kts 183°
2026-04-25 02:33 10.43522 -75.51320 19 ft 34 kts 182°
2026-04-25 02:34 10.43323 -75.51327 22 ft 25 kts 182°
2026-04-25 02:34 10.43218 -75.51309 22 ft 10 kts 132°
2026-04-25 02:34 10.43168 -75.51260 20 ft 10 kts 139°
2026-04-25 02:34 10.43115 -75.51233 19 ft 4 kts 178°
2026-04-25 02:35 10.43087 -75.51240 21 ft 0 kts 219°
2026-04-25 02:35 10.43080 -75.51247 20 ft 3 kts 229°
2026-04-25 02:35 10.43077 -75.51252 19 ft 0 kts 237°
2026-04-25 02:37 10.43076 -75.51304 22 ft 10 kts 287°
2026-04-25 02:37 10.43158 -75.51336 20 ft 23 kts 358°
2026-04-25 02:37 10.43584 -75.51318 18 ft 102 kts
2026-04-25 02:38 10.44539 -75.51276 57 ft 167 kts
2026-04-25 02:38 10.45789 -75.51231 699 ft 185 kts
2026-04-25 02:38 10.47107 -75.51206 1493 ft 202 kts
2026-04-25 02:38 10.48495 -75.51166 2514 ft 194 kts
2026-04-25 02:39 10.49907 -75.51093 3151 ft 214 kts
2026-04-25 02:39 10.51440 -75.50908 3878 ft 229 kts 13°
2026-04-25 02:39 10.52865 -75.50078 4464 ft 251 kts 47°
2026-04-25 02:39 10.53743 -75.48482 5104 ft 270 kts 69°
2026-04-25 02:40 10.54465 -75.46656 5804 ft 285 kts 67°
2026-04-25 02:40 10.55230 -75.44791 6828 ft 286 kts 67°
2026-04-25 02:40 10.56005 -75.42910 7722 ft 292 kts 67°
2026-04-25 02:40 10.56786 -75.41021 8633 ft 296 kts 67°
2026-04-25 02:41 10.57591 -75.39078 9541 ft 300 kts 67°
2026-04-25 02:41 10.58396 -75.37135 10375 ft 305 kts 67°
2026-04-25 02:41 10.59239 -75.35103 10950 ft 319 kts 67°
2026-04-25 02:41 10.60120 -75.32976 11482 ft 333 kts 67°
2026-04-25 02:42 10.61032 -75.30776 12172 ft 338 kts 67°
2026-04-25 02:42 10.61945 -75.28570 13022 ft 340 kts 67°
2026-04-25 02:42 10.62868 -75.26343 13733 ft 345 kts 67°
2026-04-25 02:42 10.63811 -75.24065 14402 ft 349 kts 67°
2026-04-25 02:43 10.64848 -75.21818 15037 ft 352 kts 56°
2026-04-25 02:43 10.66545 -75.20043 15675 ft 354 kts 32°
2026-04-25 02:43 10.68779 -75.19001 16259 ft 356 kts 14°
2026-04-25 02:43 10.71178 -75.18316 16859 ft 360 kts 16°
2026-04-25 02:44 10.73558 -75.17571 17460 ft 363 kts 16°
2026-04-25 02:44 10.75978 -75.16799 18052 ft 366 kts 16°
2026-04-25 02:44 10.78425 -75.16011 18573 ft 370 kts 16°
2026-04-25 02:44 10.80894 -75.15212 19070 ft 373 kts 16°
2026-04-25 02:45 10.83376 -75.14407 19544 ft 376 kts 16°
2026-04-25 02:45 10.85876 -75.13595 20032 ft 378 kts 16°
2026-04-25 02:45 10.88393 -75.12778 20506 ft 381 kts 16°
2026-04-25 02:45 10.90903 -75.11963 20952 ft 385 kts 16°
2026-04-25 02:46 10.93470 -75.11128 21425 ft 388 kts 16°
2026-04-25 02:46 10.96059 -75.10287 21888 ft 391 kts 16°
2026-04-25 02:46 10.98656 -75.09442 22353 ft 394 kts 16°
2026-04-25 02:46 11.01284 -75.08588 22822 ft 397 kts 15°